User: anonymous
Location: Mentone
(34.5413°N, 85.5351°W)
Time: 04:09:52
(UTC-05:00)
Language:

NOSS 2-2 (E) - Orbit

View from above orbital plane
View from above orbital plane
View from above satellite
View from above satellite

Ground track
Ground track

The orbit data is extracted from the following two-line orbital elements,

1 21809U 91076E   14240.03800599 0.00000090  00000-0  44243-4 0    01
2 21809  63.3680 219.3936 0658000  12.3197 347.6803 13.40920165    05
Epoch (UTC): 28 August 2014 00:54:43
Eccentricity: 0.0658000
inclination: 63.3680°
perigee height: 613 km
apogee height: 1598 km
right ascension of ascending node: 219.3936°
argument of perigee: 12.3197°
revolutions per day: 13.40920165
mean anomaly at epoch: 347.6803°
orbit number at epoch: 0

The dashed part of the orbit path shows where the satellite is in the earth's shadow,  

DLR